Joy — V2EI9 — position and weather

sailwx.info

Track history (hours):
 
Tides and Currents Weather Stations Pressure Air Temp Water Temp Dewpoint Dewpoint Depression Visibility Wind Speed Wind Dir Waves Ship Positions

Joy

Last reported at 2014-Nov-25 02:34 UTC. Time now 2014-Nov-26 11:16 UTC.
Position N 55°14' E 018°49'.

Length 105 m; draft 5.5 m.

Type: Cargo ship. MMSI: 305444000.

Date/timePositionNaut miles runAvg speedWind from/ knotsBaromVisibWave heightAir tempDewpointWater temp
2014-Nov-25 02:34N 55°14' E 018°49'1211.7
2014-Nov-25 01:34N 55°10' E 018°30'1111.3
2014-Nov-25 00:34N 55°05' E 018°12'1111.1
2014-Nov-24 23:34N 55°01' E 017°54'19710.8
2014-Nov-24 05:13N 54°31' E 012°16'710.4
2014-Nov-24 04:33N 54°25' E 012°11'1110.7
2014-Nov-24 03:29N 54°25' E 011°51'3310.1
2014-Nov-24 00:15N 54°35' E 010°58'810.9
2014-Nov-23 23:32N 54°34' E 010°44'1110.9
2014-Nov-23 22:33N 54°31' E 010°26'1010.3
2014-Nov-23 21:33N 54°25' E 010°13'4 3.8
2014-Nov-23 20:34N 54°22' E 010°08'1 0.9
2014-Nov-23 19:34N 54°22' E 010°07'6 6.4
2014-Nov-23 18:34N 54°20' E 009°56'7 7.0
2014-Nov-23 17:33N 54°20' E 009°44'6 5.6
2014-Nov-23 16:32N 54°16' E 009°38'5 5.0
2014-Nov-23 15:34N 54°12' E 009°33'7 7.3
2014-Nov-23 14:34N 54°09' E 009°21'9 8.6
2014-Nov-23 13:33N 54°01' E 009°18'8 8.5
2014-Nov-23 12:34N 53°54' E 009°09'4 3.8
2014-Nov-23 11:34N 53°52' E 009°03'1212.1
2014-Nov-23 10:34N 53°53' E 008°43'1211.9
2014-Nov-23 09:33N 53°59' E 008°26'1312.5
2014-Nov-23 08:33N 53°59' E 008°04'1211.9
2014-Nov-23 07:33N 53°56' E 007°44'5410.7
2014-Nov-23 02:31N 53°44' E 006°16'1010.0
2014-Nov-23 01:33N 53°41' E 006°00'1010.2
2014-Nov-23 00:33N 53°37' E 005°44'1010.3
2014-Nov-22 23:33N 53°34' E 005°28'1010.1
2014-Nov-22 22:33N 53°30' E 005°12'1010.3
2014-Nov-22 21:33N 53°27' E 004°55'1110.7
2014-Nov-22 20:33N 53°21' E 004°40'1311.4
2014-Nov-22 19:26N 53°09' E 004°31'1211.6
2014-Nov-22 18:22N 52°58' E 004°21'1011.7
2014-Nov-22 17:32N 52°50' E 004°13'1211.8
2014-Nov-22 16:33N 52°41' E 004°02'1211.5
2014-Nov-22 15:31N 52°30' E 003°54'1212.2
2014-Nov-22 14:33N 52°18' E 003°52'1212.4
2014-Nov-22 13:33N 52°06' E 003°55'9 8.8
2014-Nov-22 12:33N 51°59' E 004°04'3 2.5
2014-Nov-22 11:31N 51°58' E 004°07'0 0.0
2014-Nov-22 10:31N 51°58' E 004°07'0 0.0
2014-Nov-22 09:31N 51°58' E 004°07'0 0.0
2014-Nov-22 08:31N 51°58' E 004°07'0 0.0
2014-Nov-22 07:31N 51°58' E 004°07'0 0.0
2014-Nov-22 06:31N 51°58' E 004°07'0 0.0
2014-Nov-22 05:34N 51°58' E 004°07'0 0.0
2014-Nov-22 04:34N 51°58' E 004°07'0 0.0
2014-Nov-22 03:33N 51°58' E 004°07'0 0.0
2014-Nov-22 02:33N 51°58' E 004°07'0 0.0
2014-Nov-22 01:33N 51°58' E 004°07'0 0.0
2014-Nov-22 00:33N 51°58' E 004°07'0 0.0
2014-Nov-21 23:33N 51°58' E 004°07'0 0.0
2014-Nov-21 22:33N 51°58' E 004°07'0 0.0
2014-Nov-21 21:33N 51°58' E 004°07'0 0.0
2014-Nov-21 20:33N 51°58' E 004°07'0 0.0
2014-Nov-21 19:33N 51°58' E 004°07'0 0.0
2014-Nov-21 18:33N 51°58' E 004°07'0 0.0
2014-Nov-21 17:33N 51°58' E 004°07'0 0.0
2014-Nov-21 16:33N 51°58' E 004°07'0 0.0
2014-Nov-21 15:33N 51°58' E 004°07'0 0.0
2014-Nov-21 14:33N 51°58' E 004°07'0 0.0
2014-Nov-21 13:33N 51°58' E 004°07'0 0.0
2014-Nov-21 12:33N 51°58' E 004°07'0 0.0
2014-Nov-21 11:33N 51°58' E 004°07'0 0.0
2014-Nov-21 10:33N 51°58' E 004°07'0 0.0
2014-Nov-21 09:33N 51°58' E 004°07'0 0.0
2014-Nov-21 08:33N 51°58' E 004°07'0 0.3
2014-Nov-21 07:32N 51°57' E 004°08'0 0.0
2014-Nov-21 06:32N 51°57' E 004°08'0 0.0
2014-Nov-21 05:32N 51°57' E 004°08'0 0.0
2014-Nov-21 04:32N 51°57' E 004°08'0 0.0
2014-Nov-21 03:32N 51°57' E 004°08'0 0.0
2014-Nov-21 02:32N 51°57' E 004°08'0 0.0
2014-Nov-21 01:32N 51°57' E 004°08'0 0.0
2014-Nov-21 00:32N 51°57' E 004°08'0 0.0
2014-Nov-20 23:32N 51°57' E 004°08'0 0.0
2014-Nov-20 22:32N 51°57' E 004°08'0 0.0
2014-Nov-20 21:32N 51°57' E 004°08'0 0.0
2014-Nov-20 20:32N 51°57' E 004°08'0 0.0
2014-Nov-20 19:32N 51°57' E 004°08'0 0.0
2014-Nov-20 18:32N 51°57' E 004°08'0 0.0
2014-Nov-20 17:32N 51°57' E 004°08'0 0.0
2014-Nov-20 16:32N 51°57' E 004°08'0 0.0
2014-Nov-20 15:32N 51°57' E 004°08'0 0.0
2014-Nov-20 14:32N 51°57' E 004°08'0 0.0
2014-Nov-20 13:32N 51°57' E 004°08'0 0.0
2014-Nov-20 12:32N 51°57' E 004°08'0 0.0
2014-Nov-20 11:32N 51°57' E 004°08'0 0.0
2014-Nov-20 10:32N 51°57' E 004°08'0 0.0
2014-Nov-20 09:32N 51°57' E 004°08'0 0.0
2014-Nov-20 08:31N 51°57' E 004°08'0 0.0
2014-Nov-20 07:31N 51°57' E 004°08'0 0.0
2014-Nov-20 06:31N 51°57' E 004°08'0 0.0
2014-Nov-20 05:31N 51°57' E 004°08'0 0.0
2014-Nov-20 04:31N 51°57' E 004°08'0 0.0
2014-Nov-20 03:31N 51°57' E 004°08'0 0.0
2014-Nov-20 02:31N 51°57' E 004°08'0 0.0
2014-Nov-20 01:31N 51°57' E 004°08'0 0.0
2014-Nov-20 00:31N 51°57' E 004°08'0 0.0
2014-Nov-19 23:31N 51°57' E 004°08'0 0.0
2014-Nov-19 22:31N 51°57' E 004°08'0 0.0
2014-Nov-19 21:31N 51°57' E 004°08'0 0.0
2014-Nov-19 20:28N 51°57' E 004°08'0 0.0
2014-Nov-19 19:28N 51°57' E 004°08'0 0.0
2014-Nov-19 18:28N 51°57' E 004°08'0 0.0
2014-Nov-19 17:31N 51°57' E 004°08'0 0.0
2014-Nov-19 16:31N 51°57' E 004°08'0 0.0
2014-Nov-19 15:28N 51°57' E 004°08'0 0.0
2014-Nov-19 14:34N 51°57' E 004°08'4 4.3
2014-Nov-19 13:33N 51°60' E 004°01'1110.6
2014-Nov-19 12:33N 51°59' E 003°44'23 7.7
2014-Nov-19 09:33N 51°43' E 003°17'1111.0
2014-Nov-19 08:33N 51°33' E 003°25'9 9.5
2014-Nov-19 07:34N 51°26' E 003°35'1010.3
2014-Nov-19 06:34N 51°20' E 003°49'1 1.4
2014-Nov-19 05:34N 51°19' E 003°50'6 6.3
2014-Nov-19 04:33N 51°13' E 003°48'8 7.7
2014-Nov-19 03:32N 51°06' E 003°44'0 0.0
2014-Nov-19 02:30N 51°06' E 003°44'0 0.0
2014-Nov-19 01:33N 51°06' E 003°44'0 0.0
2014-Nov-19 00:33N 51°06' E 003°44'0 0.0
2014-Nov-18 23:33N 51°06' E 003°44'0 0.0
2014-Nov-18 22:33N 51°06' E 003°44'0 0.0
2014-Nov-18 21:33N 51°06' E 003°44'0 0.0
2014-Nov-18 20:34N 51°06' E 003°44'0 0.0
2014-Nov-18 19:29N 51°06' E 003°44'0 0.0
2014-Nov-18 18:32N 51°06' E 003°44'0 0.0
2014-Nov-18 17:32N 51°06' E 003°44'0 0.0
2014-Nov-18 16:33N 51°06' E 003°44'0 0.0
2014-Nov-18 15:33N 51°06' E 003°44'0 0.0
2014-Nov-18 14:34N 51°06' E 003°44'0 0.0
2014-Nov-18 13:33N 51°06' E 003°44'0 0.0
2014-Nov-18 12:33N 51°06' E 003°44'0 0.0
2014-Nov-18 11:33N 51°06' E 003°44'0 0.0
2014-Nov-18 10:32N 51°06' E 003°44'0 0.0
2014-Nov-18 09:34N 51°06' E 003°44'0 0.0
2014-Nov-18 08:33N 51°06' E 003°44'0 0.0
2014-Nov-18 07:32N 51°06' E 003°44'0 0.0
2014-Nov-18 06:29N 51°06' E 003°44'0 0.0
2014-Nov-18 05:33N 51°06' E 003°44'0 0.1
2014-Nov-18 04:34N 51°05' E 003°44'0 0.0
2014-Nov-18 03:33N 51°05' E 003°44'0 0.0
2014-Nov-18 02:33N 51°05' E 003°44'0 0.0
2014-Nov-18 01:33N 51°05' E 003°44'0 0.0
2014-Nov-18 00:27N 51°05' E 003°44'0 0.0
2014-Nov-17 23:33N 51°05' E 003°44'0 0.0
2014-Nov-17 22:27N 51°05' E 003°44'0 0.0
2014-Nov-17 21:33N 51°05' E 003°44'0 0.0
2014-Nov-17 20:27N 51°05' E 003°44'0 0.0
2014-Nov-17 19:33N 51°05' E 003°44'0 0.0
2014-Nov-17 18:33N 51°05' E 003°44'0 0.0
2014-Nov-17 17:33N 51°05' E 003°44'0 0.0
2014-Nov-17 16:33N 51°05' E 003°44'0 0.0
2014-Nov-17 15:33N 51°05' E 003°44'0 0.0
2014-Nov-17 14:33N 51°05' E 003°44'0 0.0
2014-Nov-17 13:33N 51°05' E 003°44'0 0.0
2014-Nov-17 12:33N 51°05' E 003°44'0 0.0
2014-Nov-17 11:33N 51°05' E 003°44'0 0.0
2014-Nov-17 10:33N 51°05' E 003°44'0 0.0
2014-Nov-17 09:33N 51°05' E 003°44'0 0.0
2014-Nov-17 08:33N 51°05' E 003°44'0 0.0
2014-Nov-17 07:32N 51°05' E 003°44'0 0.0
2014-Nov-17 06:32N 51°05' E 003°44'0 0.0
2014-Nov-17 05:26N 51°05' E 003°44'0 0.0
2014-Nov-17 04:32N 51°05' E 003°44'0 0.0
2014-Nov-17 03:32N 51°05' E 003°44'0 0.0
2014-Nov-17 02:32N 51°05' E 003°44'0 0.0
2014-Nov-17 01:34N 51°05' E 003°44'0 0.0
2014-Nov-17 00:29N 51°05' E 003°44'0 0.0
2014-Nov-16 23:32N 51°05' E 003°44'0 0.0
2014-Nov-16 22:32N 51°05' E 003°44'0 0.0
2014-Nov-16 21:32N 51°05' E 003°44'0 0.0
2014-Nov-16 20:32N 51°05' E 003°44'0 0.0
2014-Nov-16 19:32N 51°05' E 003°44'0 0.0
2014-Nov-16 18:32N 51°05' E 003°44'0 0.0
2014-Nov-16 17:32N 51°05' E 003°44'0 0.0
2014-Nov-16 16:32N 51°05' E 003°44'0 0.0
2014-Nov-16 15:23N 51°05' E 003°44'0 0.0
2014-Nov-16 14:32N 51°05' E 003°44'0 0.0
2014-Nov-16 13:26N 51°05' E 003°44'0 0.0
2014-Nov-16 12:32N 51°05' E 003°44'0 0.0
2014-Nov-16 11:32N 51°05' E 003°44'0 0.0
2014-Nov-16 10:32N 51°05' E 003°44'0 0.0
2014-Nov-16 09:32N 51°05' E 003°44'0 0.0
2014-Nov-16 08:32N 51°05' E 003°44'0 0.0
2014-Nov-16 07:33N 51°05' E 003°44'4 3.6
2014-Nov-16 06:34N 51°09' E 003°47'8 7.5
2014-Nov-16 05:34N 51°16' E 003°50'4 3.9
2014-Nov-16 04:33N 51°20' E 003°49'4 3.8
2014-Nov-16 03:33N 51°22' E 003°44'8 7.9
2014-Nov-16 02:33N 51°25' E 003°32'7 6.9
2014-Nov-16 01:33N 51°24' E 003°22'12 9.4
2014-Nov-16 00:15N 51°24' E 003°02'13 7.5
2014-Nov-15 22:33N 51°26' E 002°42'1 1.3
2014-Nov-15 21:34N 51°24' E 002°41'3 3.3
2014-Nov-15 20:33N 51°28' E 002°42'3 3.4
2014-Nov-15 19:33N 51°31' E 002°42'135 9.6
2014-Nov-15 05:32N 53°27' E 004°37'1110.9
2014-Nov-15 04:33N 53°32' E 004°52'1111.1
2014-Nov-15 03:33N 53°36' E 005°10'  
Track history (hours):
 
Tides and Currents Weather Stations Pressure Air Temp Water Temp Dewpoint Dewpoint Depression Visibility Wind Speed Wind Dir Waves Ship Positions

Joy

Last reported at 2014-Nov-25 02:34 UTC. Time now 2014-Nov-26 11:16 UTC.
Position N 55°14' E 018°49'.

Length 105 m; draft 5.5 m.

Type: Cargo ship. MMSI: 305444000.

Date/timePositionNaut miles runAvg speedWind from/ knotsBaromVisibWave heightAir tempDewpointWater temp
2014-Nov-25 02:34N 55°14' E 018°49'1211.7
2014-Nov-25 01:34N 55°10' E 018°30'1111.3
2014-Nov-25 00:34N 55°05' E 018°12'1111.1
2014-Nov-24 23:34N 55°01' E 017°54'19710.8
2014-Nov-24 05:13N 54°31' E 012°16'710.4
2014-Nov-24 04:33N 54°25' E 012°11'1110.7
2014-Nov-24 03:29N 54°25' E 011°51'3310.1
2014-Nov-24 00:15N 54°35' E 010°58'810.9
2014-Nov-23 23:32N 54°34' E 010°44'1110.9
2014-Nov-23 22:33N 54°31' E 010°26'1010.3
2014-Nov-23 21:33N 54°25' E 010°13'4 3.8
2014-Nov-23 20:34N 54°22' E 010°08'1 0.9
2014-Nov-23 19:34N 54°22' E 010°07'6 6.4
2014-Nov-23 18:34N 54°20' E 009°56'7 7.0
2014-Nov-23 17:33N 54°20' E 009°44'6 5.6
2014-Nov-23 16:32N 54°16' E 009°38'5 5.0
2014-Nov-23 15:34N 54°12' E 009°33'7 7.3
2014-Nov-23 14:34N 54°09' E 009°21'9 8.6
2014-Nov-23 13:33N 54°01' E 009°18'8 8.5
2014-Nov-23 12:34N 53°54' E 009°09'4 3.8
2014-Nov-23 11:34N 53°52' E 009°03'1212.1
2014-Nov-23 10:34N 53°53' E 008°43'1211.9
2014-Nov-23 09:33N 53°59' E 008°26'1312.5
2014-Nov-23 08:33N 53°59' E 008°04'1211.9
2014-Nov-23 07:33N 53°56' E 007°44'5410.7
2014-Nov-23 02:31N 53°44' E 006°16'1010.0
2014-Nov-23 01:33N 53°41' E 006°00'1010.2
2014-Nov-23 00:33N 53°37' E 005°44'1010.3
2014-Nov-22 23:33N 53°34' E 005°28'1010.1
2014-Nov-22 22:33N 53°30' E 005°12'1010.3
2014-Nov-22 21:33N 53°27' E 004°55'1110.7
2014-Nov-22 20:33N 53°21' E 004°40'1311.4
2014-Nov-22 19:26N 53°09' E 004°31'1211.6
2014-Nov-22 18:22N 52°58' E 004°21'1011.7
2014-Nov-22 17:32N 52°50' E 004°13'1211.8
2014-Nov-22 16:33N 52°41' E 004°02'1211.5
2014-Nov-22 15:31N 52°30' E 003°54'1212.2
2014-Nov-22 14:33N 52°18' E 003°52'1212.4
2014-Nov-22 13:33N 52°06' E 003°55'9 8.8
2014-Nov-22 12:33N 51°59' E 004°04'3 2.5
2014-Nov-22 11:31N 51°58' E 004°07'0 0.0
2014-Nov-22 10:31N 51°58' E 004°07'0 0.0
2014-Nov-22 09:31N 51°58' E 004°07'0 0.0
2014-Nov-22 08:31N 51°58' E 004°07'0 0.0
2014-Nov-22 07:31N 51°58' E 004°07'0 0.0
2014-Nov-22 06:31N 51°58' E 004°07'0 0.0
2014-Nov-22 05:34N 51°58' E 004°07'0 0.0
2014-Nov-22 04:34N 51°58' E 004°07'0 0.0
2014-Nov-22 03:33N 51°58' E 004°07'0 0.0
2014-Nov-22 02:33N 51°58' E 004°07'0 0.0
2014-Nov-22 01:33N 51°58' E 004°07'0 0.0
2014-Nov-22 00:33N 51°58' E 004°07'0 0.0
2014-Nov-21 23:33N 51°58' E 004°07'0 0.0
2014-Nov-21 22:33N 51°58' E 004°07'0 0.0
2014-Nov-21 21:33N 51°58' E 004°07'0 0.0
2014-Nov-21 20:33N 51°58' E 004°07'0 0.0
2014-Nov-21 19:33N 51°58' E 004°07'0 0.0
2014-Nov-21 18:33N 51°58' E 004°07'0 0.0
2014-Nov-21 17:33N 51°58' E 004°07'0 0.0
2014-Nov-21 16:33N 51°58' E 004°07'0 0.0
2014-Nov-21 15:33N 51°58' E 004°07'0 0.0
2014-Nov-21 14:33N 51°58' E 004°07'0 0.0
2014-Nov-21 13:33N 51°58' E 004°07'0 0.0
2014-Nov-21 12:33N 51°58' E 004°07'0 0.0
2014-Nov-21 11:33N 51°58' E 004°07'0 0.0
2014-Nov-21 10:33N 51°58' E 004°07'0 0.0
2014-Nov-21 09:33N 51°58' E 004°07'0 0.0
2014-Nov-21 08:33N 51°58' E 004°07'0 0.3
2014-Nov-21 07:32N 51°57' E 004°08'0 0.0
2014-Nov-21 06:32N 51°57' E 004°08'0 0.0
2014-Nov-21 05:32N 51°57' E 004°08'0 0.0
2014-Nov-21 04:32N 51°57' E 004°08'0 0.0
2014-Nov-21 03:32N 51°57' E 004°08'0 0.0
2014-Nov-21 02:32N 51°57' E 004°08'0 0.0
2014-Nov-21 01:32N 51°57' E 004°08'0 0.0
2014-Nov-21 00:32N 51°57' E 004°08'0 0.0
2014-Nov-20 23:32N 51°57' E 004°08'0 0.0
2014-Nov-20 22:32N 51°57' E 004°08'0 0.0
2014-Nov-20 21:32N 51°57' E 004°08'0 0.0
2014-Nov-20 20:32N 51°57' E 004°08'0 0.0
2014-Nov-20 19:32N 51°57' E 004°08'0 0.0
2014-Nov-20 18:32N 51°57' E 004°08'0 0.0
2014-Nov-20 17:32N 51°57' E 004°08'0 0.0
2014-Nov-20 16:32N 51°57' E 004°08'0 0.0
2014-Nov-20 15:32N 51°57' E 004°08'0 0.0
2014-Nov-20 14:32N 51°57' E 004°08'0 0.0
2014-Nov-20 13:32N 51°57' E 004°08'0 0.0
2014-Nov-20 12:32N 51°57' E 004°08'0 0.0
2014-Nov-20 11:32N 51°57' E 004°08'0 0.0
2014-Nov-20 10:32N 51°57' E 004°08'0 0.0
2014-Nov-20 09:32N 51°57' E 004°08'0 0.0
2014-Nov-20 08:31N 51°57' E 004°08'0 0.0
2014-Nov-20 07:31N 51°57' E 004°08'0 0.0
2014-Nov-20 06:31N 51°57' E 004°08'0 0.0
2014-Nov-20 05:31N 51°57' E 004°08'0 0.0
2014-Nov-20 04:31N 51°57' E 004°08'0 0.0
2014-Nov-20 03:31N 51°57' E 004°08'0 0.0
2014-Nov-20 02:31N 51°57' E 004°08'0 0.0
2014-Nov-20 01:31N 51°57' E 004°08'0 0.0
2014-Nov-20 00:31N 51°57' E 004°08'0 0.0
2014-Nov-19 23:31N 51°57' E 004°08'0 0.0
2014-Nov-19 22:31N 51°57' E 004°08'0 0.0
2014-Nov-19 21:31N 51°57' E 004°08'0 0.0
2014-Nov-19 20:28N 51°57' E 004°08'0 0.0
2014-Nov-19 19:28N 51°57' E 004°08'0 0.0
2014-Nov-19 18:28N 51°57' E 004°08'0 0.0
2014-Nov-19 17:31N 51°57' E 004°08'0 0.0
2014-Nov-19 16:31N 51°57' E 004°08'0 0.0
2014-Nov-19 15:28N 51°57' E 004°08'0 0.0
2014-Nov-19 14:34N 51°57' E 004°08'4 4.3
2014-Nov-19 13:33N 51°60' E 004°01'1110.6
2014-Nov-19 12:33N 51°59' E 003°44'23 7.7
2014-Nov-19 09:33N 51°43' E 003°17'1111.0
2014-Nov-19 08:33N 51°33' E 003°25'9 9.5
2014-Nov-19 07:34N 51°26' E 003°35'1010.3
2014-Nov-19 06:34N 51°20' E 003°49'1 1.4
2014-Nov-19 05:34N 51°19' E 003°50'6 6.3
2014-Nov-19 04:33N 51°13' E 003°48'8 7.7
2014-Nov-19 03:32N 51°06' E 003°44'0 0.0
2014-Nov-19 02:30N 51°06' E 003°44'0 0.0
2014-Nov-19 01:33N 51°06' E 003°44'0 0.0
2014-Nov-19 00:33N 51°06' E 003°44'0 0.0
2014-Nov-18 23:33N 51°06' E 003°44'0 0.0
2014-Nov-18 22:33N 51°06' E 003°44'0 0.0
2014-Nov-18 21:33N 51°06' E 003°44'0 0.0
2014-Nov-18 20:34N 51°06' E 003°44'0 0.0
2014-Nov-18 19:29N 51°06' E 003°44'0 0.0
2014-Nov-18 18:32N 51°06' E 003°44'0 0.0
2014-Nov-18 17:32N 51°06' E 003°44'0 0.0
2014-Nov-18 16:33N 51°06' E 003°44'0 0.0
2014-Nov-18 15:33N 51°06' E 003°44'0 0.0
2014-Nov-18 14:34N 51°06' E 003°44'0 0.0
2014-Nov-18 13:33N 51°06' E 003°44'0 0.0
2014-Nov-18 12:33N 51°06' E 003°44'0 0.0
2014-Nov-18 11:33N 51°06' E 003°44'0 0.0
2014-Nov-18 10:32N 51°06' E 003°44'0 0.0
2014-Nov-18 09:34N 51°06' E 003°44'0 0.0
2014-Nov-18 08:33N 51°06' E 003°44'0 0.0
2014-Nov-18 07:32N 51°06' E 003°44'0 0.0
2014-Nov-18 06:29N 51°06' E 003°44'0 0.0
2014-Nov-18 05:33N 51°06' E 003°44'0 0.1
2014-Nov-18 04:34N 51°05' E 003°44'0 0.0
2014-Nov-18 03:33N 51°05' E 003°44'0 0.0
2014-Nov-18 02:33N 51°05' E 003°44'0 0.0
2014-Nov-18 01:33N 51°05' E 003°44'0 0.0
2014-Nov-18 00:27N 51°05' E 003°44'0 0.0
2014-Nov-17 23:33N 51°05' E 003°44'0 0.0
2014-Nov-17 22:27N 51°05' E 003°44'0 0.0
2014-Nov-17 21:33N 51°05' E 003°44'0 0.0
2014-Nov-17 20:27N 51°05' E 003°44'0 0.0
2014-Nov-17 19:33N 51°05' E 003°44'0 0.0
2014-Nov-17 18:33N 51°05' E 003°44'0 0.0
2014-Nov-17 17:33N 51°05' E 003°44'0 0.0
2014-Nov-17 16:33N 51°05' E 003°44'0 0.0
2014-Nov-17 15:33N 51°05' E 003°44'0 0.0
2014-Nov-17 14:33N 51°05' E 003°44'0 0.0
2014-Nov-17 13:33N 51°05' E 003°44'0 0.0
2014-Nov-17 12:33N 51°05' E 003°44'0 0.0
2014-Nov-17 11:33N 51°05' E 003°44'0 0.0
2014-Nov-17 10:33N 51°05' E 003°44'0 0.0
2014-Nov-17 09:33N 51°05' E 003°44'0 0.0
2014-Nov-17 08:33N 51°05' E 003°44'0 0.0
2014-Nov-17 07:32N 51°05' E 003°44'0 0.0
2014-Nov-17 06:32N 51°05' E 003°44'0 0.0
2014-Nov-17 05:26N 51°05' E 003°44'0 0.0
2014-Nov-17 04:32N 51°05' E 003°44'0 0.0
2014-Nov-17 03:32N 51°05' E 003°44'0 0.0
2014-Nov-17 02:32N 51°05' E 003°44'0 0.0
2014-Nov-17 01:34N 51°05' E 003°44'0 0.0
2014-Nov-17 00:29N 51°05' E 003°44'0 0.0
2014-Nov-16 23:32N 51°05' E 003°44'0 0.0
2014-Nov-16 22:32N 51°05' E 003°44'0 0.0
2014-Nov-16 21:32N 51°05' E 003°44'0 0.0
2014-Nov-16 20:32N 51°05' E 003°44'0 0.0
2014-Nov-16 19:32N 51°05' E 003°44'0 0.0
2014-Nov-16 18:32N 51°05' E 003°44'0 0.0
2014-Nov-16 17:32N 51°05' E 003°44'0 0.0
2014-Nov-16 16:32N 51°05' E 003°44'0 0.0
2014-Nov-16 15:23N 51°05' E 003°44'0 0.0
2014-Nov-16 14:32N 51°05' E 003°44'0 0.0
2014-Nov-16 13:26N 51°05' E 003°44'0 0.0
2014-Nov-16 12:32N 51°05' E 003°44'0 0.0
2014-Nov-16 11:32N 51°05' E 003°44'0 0.0
2014-Nov-16 10:32N 51°05' E 003°44'0 0.0
2014-Nov-16 09:32N 51°05' E 003°44'0 0.0
2014-Nov-16 08:32N 51°05' E 003°44'0 0.0
2014-Nov-16 07:33N 51°05' E 003°44'4 3.6
2014-Nov-16 06:34N 51°09' E 003°47'8 7.5
2014-Nov-16 05:34N 51°16' E 003°50'4 3.9
2014-Nov-16 04:33N 51°20' E 003°49'4 3.8
2014-Nov-16 03:33N 51°22' E 003°44'8 7.9
2014-Nov-16 02:33N 51°25' E 003°32'7 6.9
2014-Nov-16 01:33N 51°24' E 003°22'12 9.4
2014-Nov-16 00:15N 51°24' E 003°02'13 7.5
2014-Nov-15 22:33N 51°26' E 002°42'1 1.3
2014-Nov-15 21:34N 51°24' E 002°41'3 3.3
2014-Nov-15 20:33N 51°28' E 002°42'3 3.4
2014-Nov-15 19:33N 51°31' E 002°42'135 9.6
2014-Nov-15 05:32N 53°27' E 004°37'1110.9
2014-Nov-15 04:33N 53°32' E 004°52'1111.1
2014-Nov-15 03:33N 53°36' E 005°10'  

Dump ship's entire track history